CW1855 Weather Reports


Display with metric or nautical units.
time (UTC)temp
F
wind
direction
speed
MPH
gust
MPH
rain 1hr
in
rain 24hr
in
rain mn
in
humidity
%
barometer
mb
20181115183204 49 91 0.0 0.0 0.00 0.00 0.00 81
20181115182205 48 22 0.0 0.0 0.00 0.00 0.00 84
20181115180205 46 208 0.0 0.0 0.00 0.00 0.00 85
20181115175704 45 208 0.0 0.0 0.00 0.00 0.00 85
20181115175205 45 208 0.0 0.0 0.00 0.00 0.00 84
20181115174705 45 207 0.0 0.0 0.00 0.00 0.00 86
20181115174204 45 82 0.0 0.0 0.00 0.00 0.00 87
20181115172704 45 108 0.0 0.0 0.00 0.00 0.00 87
20181115171704 45 53 0.0 0.0 0.00 0.00 0.00 87
20181115170705 44 53 0.0 0.0 0.00 0.00 0.00 87
20181115165704 44 32 0.0 0.0 0.00 0.00 0.00 88
20181115164705 44 25 2.0 0.0 0.00 0.00 0.00 87
20181115163204 44 25 0.0 0.0 0.00 0.00 0.00 87
20181115162705 44 23 2.0 0.0 0.00 0.00 0.00 87
20181115162217 44 35 3.0 0.0 0.00 0.00 0.00 87
20181115161204 43 29 3.0 0.0 0.00 0.00 0.00 87
20181115155204 43 141 0.0 0.0 0.00 0.00 0.00 86
20181115154705 43 141 0.0 0.0 0.00 0.00 0.00 87
20181115154205 43 141 0.0 0.0 0.00 0.00 0.00 87
20181115153704 43 141 0.0 0.0 0.00 0.00 0.00 87
20181115153204 43 141 0.0 0.0 0.00 0.00 0.00 87
20181115152705 43 141 0.0 0.0 0.00 0.00 0.00 86
20181115152205 43 141 0.0 0.0 0.00 0.00 0.00 87
20181115150205 43 141 0.0 0.0 0.00 0.00 0.00 87
20181115145705 43 141 0.0 0.0 0.00 0.00 0.00 86
20181115145205 43 141 0.0 0.0 0.00 0.00 0.00 86
20181115144205 43 141 0.0 0.0 0.00 0.00 0.00 86
20181115143705 43 141 0.0 0.0 0.00 0.00 0.00 86
20181115142705 43 141 0.0 0.0 0.00 0.00 0.00 86
20181115142204 43 141 0.0 0.0 0.00 0.00 0.00 86
20181115141205 44 140 0.0 0.0 0.00 0.00 0.00 86
20181115140705 44 141 0.0 0.0 0.00 0.00 0.00 86
20181115140205 44 141 0.0 0.0 0.00 0.00 0.00 86
20181115135205 44 101 0.0 0.0 0.00 0.00 0.00 87
20181115134204 44 34 0.0 0.0 0.00 0.00 0.00 87
20181115133704 44 34 0.0 0.0 0.00 0.00 0.00 87
20181115132705 45 34 0.0 0.0 0.00 0.00 0.00 86
20181115131705 45 34 0.0 0.0 0.00 0.00 0.00 86
20181115131204 45 34 0.0 0.0 0.00 0.00 0.00 86
20181115130205 45 34 0.0 0.0 0.00 0.00 0.00 86
20181115125705 45 34 0.0 0.0 0.00 0.00 0.00 86
20181115125204 45 34 0.0 0.0 0.00 0.00 0.00 86
20181115124705 45 34 0.0 0.0 0.00 0.00 0.00 85
20181115123704 44 34 0.0 0.0 0.00 0.00 0.00 85
20181115123204 44 34 0.0 0.0 0.00 0.00 0.00 85
20181115122704 44 34 0.0 0.0 0.00 0.00 0.00 85
20181115121204 44 34 0.0 0.0 0.00 0.00 0.00 85
20181115115205 44 34 0.0 0.0 0.00 0.00 0.00 84
20181115113704 43 34 0.0 0.0 0.00 0.00 0.00 84
20181115112205 43 34 0.0 0.0 0.00 0.00 0.00 84
20181115111704 43 34 0.0 0.0 0.00 0.00 0.00 84
20181115111205 42 34 0.0 0.0 0.00 0.00 0.00 84
20181115110204 42 34 0.0 0.0 0.00 0.00 0.00 84
20181115105704 41 34 0.0 0.0 0.00 0.00 0.00 82
20181115104704 41 34 0.0 0.0 0.00 0.00 0.00 81
20181115104205 42 34 0.0 0.0 0.00 0.00 0.00 83
20181115103205 42 34 0.0 0.0 0.00 0.00 0.00 82
20181115102204 42 34 0.0 0.0 0.00 0.00 0.00 82
20181115100204 42 34 0.0 0.0 0.00 0.00 0.00 79
20181115095705 42 34 0.0 0.0 0.00 0.00 0.00 76
20181115095205 43 34 0.0 0.0 0.00 0.00 0.00 77
20181115094704 43 34 0.0 0.0 0.00 0.00 0.00 77
20181115094204 43 34 0.0 0.0 0.00 0.00 0.00 79
20181115093205 44 34 0.0 0.0 0.00 0.00 0.00 80
20181115092705 44 34 0.0 0.0 0.00 0.00 0.00 80
20181115092205 44 34 0.0 0.0 0.00 0.00 0.00 80
20181115091705 45 34 0.0 0.0 0.00 0.00 0.00 80
20181115091204 45 34 0.0 0.0 0.00 0.00 0.00 80
20181115090704 45 34 0.0 0.0 0.00 0.00 0.00 80
20181115090205 45 34 0.0 0.0 0.00 0.00 0.00 80
20181115085705 45 34 0.0 0.0 0.00 0.00 0.00 80
20181115085204 45 34 0.0 0.0 0.00 0.00 0.00 81
20181115084204 44 34 0.0 0.0 0.00 0.00 0.00 81
20181115083705 44 34 0.0 0.0 0.00 0.00 0.00 80
20181115083204 44 34 0.0 0.0 0.00 0.00 0.00 81
20181115082704 44 34 0.0 0.0 0.00 0.00 0.00 80
20181115081704 44 34 0.0 0.0 0.00 0.00 0.00 80
20181115081205 44 34 0.0 0.0 0.00 0.00 0.00 81
20181115075704 44 84 0.0 0.0 0.00 0.00 0.00 78
20181115075205 43 84 0.0 0.0 0.00 0.00 0.00 77
20181115072705 42 84 0.0 0.0 0.00 0.00 0.00 77
20181115071705 42 84 0.0 0.0 0.00 0.00 0.00 77
20181115070704 42 84 0.0 0.0 0.00 0.00 0.00 75
20181115065204 42 84 0.0 0.0 0.00 0.00 0.00 71
20181115064704 43 84 0.0 0.0 0.00 0.00 0.00 70
20181115064205 43 84 0.0 0.0 0.00 0.00 0.00 71
20181115063705 44 84 0.0 0.0 0.00 0.00 0.00 73
20181115062205 44 84 0.0 0.0 0.00 0.00 0.00 75
20181115060205 44 84 0.0 0.0 0.00 0.00 0.00 75
20181115055704 44 84 0.0 0.0 0.00 0.00 0.00 74
20181115055204 44 84 0.0 0.0 0.00 0.00 0.00 73
20181115054704 44 84 0.0 0.0 0.00 0.00 0.00 73
20181115054205 44 84 0.0 0.0 0.00 0.00 0.00 73
20181115053204 44 84 0.0 0.0 0.00 0.00 0.00 74
20181115052205 44 84 0.0 0.0 0.00 0.00 0.00 73
20181115051204 44 84 0.0 0.0 0.00 0.00 0.00 74
20181115050704 44 84 0.0 0.0 0.00 0.00 0.00 75
20181115045705 43 84 0.0 0.0 0.00 0.00 0.00 69
20181115045204 43 84 0.0 0.0 0.00 0.00 0.00 69
20181115044704 44 84 0.0 0.0 0.00 0.00 0.00 71
20181115041705 46 84 0.0 0.0 0.00 0.00 0.00 67
20181115041206 46 84 0.0 0.0 0.00 0.00 0.00 67
20181115040705 47 84 0.0 0.0 0.00 0.00 0.00 69
20181115040205 47 84 0.0 0.0 0.00 0.00 0.00 69
20181115035204 47 84 0.0 0.0 0.00 0.00 0.00 70
20181115034705 47 84 0.0 0.0 0.00 0.00 0.00 69
20181115034205 48 84 0.0 0.0 0.00 0.00 0.00 70
20181115031705 48 84 0.0 0.0 0.00 0.00 0.00 69
20181115025204 48 84 0.0 0.0 0.00 0.00 0.00 69
20181115024705 48 84 0.0 0.0 0.00 0.00 0.00 68
20181115023705 48 84 0.0 0.0 0.00 0.00 0.00 69
20181115022204 48 84 0.0 0.0 0.00 0.00 0.00 68
20181115021205 48 84 0.0 0.0 0.00 0.00 0.00 68
20181115020204 48 84 0.0 0.0 0.00 0.00 0.00 68
20181115015703 48 84 0.0 0.0 0.00 0.00 0.00 68
20181115014205 48 84 0.0 0.0 0.00 0.00 0.00 67
20181115011704 48 84 0.0 0.0 0.00 0.00 0.00 67
20181115011204 48 84 0.0 0.0 0.00 0.00 0.00 67
20181115010704 48 84 0.0 0.0 0.00 0.00 0.00 67
20181115010205 48 84 0.0 0.0 0.00 0.00 0.00 67
20181115005204 49 84 0.0 0.0 0.00 0.00 0.00 66
20181115004705 49 84 0.0 0.0 0.00 0.00 0.00 65
20181115004204 49 84 0.0 0.0 0.00 0.00 0.00 65
20181115003704 49 84 0.0 0.0 0.00 0.00 0.00 65
20181115003204 49 84 0.0 0.0 0.00 0.00 0.00 65
20181115002205 49 84 0.0 0.0 0.00 0.00 0.00 66
20181115001204 49 84 0.0 0.0 0.00 0.00 0.00 67
20181115000205 49 84 0.0 0.0 0.00 0.00 0.00 67
20181114235204 49 85 0.0 0.0 0.00 0.00 0.00 66
20181114232205 50 50 3.0 0.0 0.00 0.00 0.00 60
20181114231204 50 138 3.0 0.0 0.00 0.00 0.00 58
20181114230705 50 46 2.0 0.0 0.00 0.00 0.00 58
20181114230204 50 45 0.0 0.0 0.00 0.00 0.00 55
20181114225705 50 45 2.0 0.0 0.00 0.00 0.00 54
20181114223204 54 29 3.0 0.0 0.00 0.00 0.00 41
20181114222705 54 29 3.0 0.0 0.00 0.00 0.00 40
20181114220704 55 19 3.0 0.0 0.00 0.00 0.00 40
20181114213704 55 18 4.0 0.0 0.00 0.00 0.00 40
20181114212204 57 15 4.0 0.0 0.00 0.00 0.00 36
20181114205705 57 315 4.0 0.0 0.00 0.00 0.00 37
20181114205204 57 244 2.0 0.0 0.00 0.00 0.00 37
20181114203704 56 132 2.0 0.0 0.00 0.00 0.00 36
20181114203205 57 133 3.0 0.0 0.00 0.00 0.00 36
20181114202205 57 148 3.0 0.0 0.00 0.00 0.00 36
20181114201704 57 173 5.0 0.0 0.00 0.00 0.00 36
20181114201204 57 199 5.0 0.0 0.00 0.00 0.00 37
20181114200704 57 277 6.0 0.0 0.00 0.00 0.00 36
20181114200206 57 236 5.0 0.0 0.00 0.00 0.00 35
20181114195705 57 261 4.0 0.0 0.00 0.00 0.00 36
20181114194704 55 285 0.0 0.0 0.00 0.00 0.00 37
20181114194204 54 285 0.0 0.0 0.00 0.00 0.00 37
20181114193704 55 285 0.0 0.0 0.00 0.00 0.00 36
20181114193205 55 284 0.0 0.0 0.00 0.00 0.00 36
20181114191205 52 12 0.0 0.0 0.00 0.00 0.00 39
20181114190704 53 12 0.0 0.0 0.00 0.00 0.00 40
20181114190204 52 302 0.0 0.0 0.00 0.00 0.00 40
20181114185704 51 230 0.0 0.0 0.00 0.00 0.00 41
20181114185204 51 231 0.0 0.0 0.00 0.00 0.00 44
20181114184704 51 230 0.0 0.0 0.00 0.00 0.00 43
20181114184205 50 199 2.0 0.0 0.00 0.00 0.00 44